| time (UTC) | temp F | wind direction | speed MPH | gust MPH | rain 1hr in | rain 24hr in | rain mn in | humidity % | barometer mb |
| 20260502221536 | 47 | 356 | 3.0 | 9.0 | 0.00 | 0.00 | 0.00 | 48 | 1015.6 |
| 20260502220035 | 46 | 335 | 5.0 | 12.0 | 0.00 | 0.00 | 0.00 | 48 | 1015.8 |
| 20260502214537 | 46 | 287 | 5.0 | 11.0 | 0.00 | 0.00 | 0.00 | 47 | 1015.9 |
| 20260502213032 | 47 | 258 | 5.0 | 9.0 | 0.00 | 0.00 | 0.00 | 47 | 1015.8 |
| 20260502211537 | 47 | 297 | 3.0 | 11.0 | 0.00 | 0.00 | 0.00 | 48 | 1015.9 |
| 20260502210047 | 46 | 318 | 5.0 | 11.0 | 0.00 | 0.00 | 0.00 | 47 | 1016.0 |
| 20260502204536 | 46 | 308 | 4.0 | 11.0 | 0.00 | 0.00 | 0.00 | 48 | 1016.0 |
| 20260502203036 | 46 | 314 | 5.0 | 9.0 | 0.00 | 0.00 | 0.00 | 46 | 1016.1 |
| 20260502201532 | 46 | 315 | 4.0 | 12.0 | 0.00 | 0.00 | 0.00 | 48 | 1016.3 |
| 20260502200042 | 46 | 232 | 6.0 | 10.0 | 0.00 | 0.00 | 0.00 | 48 | 1016.5 |
| 20260502194540 | 46 | 253 | 3.0 | 14.0 | 0.00 | 0.00 | 0.00 | 48 | 1016.6 |
| 20260502193035 | 46 | 303 | 4.0 | 12.0 | 0.00 | 0.00 | 0.00 | 48 | 1016.7 |
| 20260502191536 | 45 | 15 | 6.0 | 11.0 | 0.00 | 0.00 | 0.00 | 47 | 1016.8 |
| 20260502190036 | 46 | 251 | 7.0 | 12.0 | 0.00 | 0.00 | 0.00 | 47 | 1016.8 |
| 20260502184535 | 46 | 17 | 3.0 | 10.0 | 0.00 | 0.00 | 0.00 | 48 | 1017.1 |
| 20260502183038 | 45 | 357 | 3.0 | 10.0 | 0.00 | 0.00 | 0.00 | 48 | 1017.0 |
| 20260502181539 | 45 | 6 | 5.0 | 13.0 | 0.00 | 0.00 | 0.00 | 48 | 1017.2 |
| 20260502163038 | 43 | 346 | 5.0 | 10.0 | 0.00 | 0.00 | 0.00 | 48 | 1017.9 |
| 20260502161536 | 44 | 309 | 5.0 | 9.0 | 0.00 | 0.00 | 0.00 | 49 | 1017.9 |
| 20260502151541 | 42 | 11 | 7.0 | 13.0 | 0.00 | 0.00 | 0.00 | 52 | 1017.9 |
| 20260502123041 | 39 | 26 | 3.0 | 6.0 | 0.00 | 0.00 | 0.00 | 68 | 1018.0 |
| 20260502121537 | 37 | 352 | 1.0 | 7.0 | 0.00 | 0.00 | 0.00 | 71 | 1017.9 |
| 20260502114549 | 36 | 312 | 1.0 | 5.0 | 0.00 | 0.00 | 0.00 | 74 | 1017.5 |
| 20260502113034 | 35 | 356 | 2.0 | 4.0 | 0.00 | 0.00 | 0.00 | 76 | 1017.4 |
| 20260502111542 | 34 | 246 | 0.0 | 4.0 | 0.00 | 0.00 | 0.00 | 77 | 1017.3 |
| 20260502110037 | 34 | 305 | 0.0 | 3.0 | 0.00 | 0.00 | 0.00 | 78 | 1017.2 |
| 20260502104537 | 34 | 0 | 0.0 | 0.0 | 0.00 | 0.00 | 0.00 | 78 | 1017.2 |
| 20260502103034 | 34 | 0 | 0.0 | 2.0 | 0.00 | 0.00 | 0.00 | 78 | 1017.2 |
| 20260502101536 | 35 | 0 | 1.0 | 4.0 | 0.00 | 0.00 | 0.00 | 77 | 1017.0 |
| 20260502071532 | 37 | 0 | 0.0 | 0.0 | 0.00 | 0.00 | 0.00 | 84 | 1016.1 |
| 20260502070034 | 37 | 0 | 0.0 | 0.0 | 0.00 | 0.00 | 0.00 | 83 | 1016.4 |
| 20260502064556 | 37 | 0 | 0.0 | 0.0 | 0.00 | 0.00 | 0.00 | 82 | 1016.3 |
| 20260502063040 | 38 | 0 | 0.0 | 0.0 | 0.00 | 0.00 | 0.00 | 81 | 1016.4 |
| 20260502061535 | 38 | 0 | 0.0 | 1.0 | 0.00 | 0.00 | 0.00 | 80 | 1016.6 |
| 20260502060043 | 38 | 0 | 0.0 | 1.0 | 0.00 | 0.00 | 0.00 | 78 | 1016.8 |
| 20260502054534 | 38 | 93 | 0.0 | 1.0 | 0.00 | 0.00 | 0.00 | 78 | 1016.9 |
| 20260502053041 | 38 | 0 | 0.0 | 1.0 | 0.00 | 0.00 | 0.00 | 78 | 1016.9 |
| 20260502051535 | 39 | 0 | 0.0 | 3.0 | 0.00 | 0.00 | 0.00 | 78 | 1016.9 |
| 20260502050038 | 39 | 108 | 0.0 | 2.0 | 0.00 | 0.00 | 0.00 | 77 | 1016.8 |
| 20260502044534 | 39 | 101 | 1.0 | 6.0 | 0.00 | 0.00 | 0.00 | 76 | 1016.7 |
| 20260502043039 | 40 | 315 | 1.0 | 5.0 | 0.00 | 0.00 | 0.00 | 71 | 1016.4 |
| 20260502041540 | 40 | 35 | 0.0 | 3.0 | 0.00 | 0.00 | 0.00 | 72 | 1016.4 |
| 20260502040032 | 40 | 58 | 3.0 | 14.0 | 0.00 | 0.00 | 0.00 | 71 | 1016.2 |
| 20260502034533 | 41 | 342 | 3.0 | 6.0 | 0.00 | 0.00 | 0.00 | 70 | 1016.1 |
| 20260502033034 | 41 | 1 | 2.0 | 4.0 | 0.00 | 0.00 | 0.00 | 71 | 1015.9 |
| 20260502031537 | 41 | 309 | 1.0 | 3.0 | 0.00 | 0.00 | 0.00 | 70 | 1015.8 |
| 20260502030044 | 41 | 2 | 0.0 | 3.0 | 0.00 | 0.00 | 0.00 | 70 | 1015.9 |
| 20260502024535 | 42 | 353 | 1.0 | 6.0 | 0.00 | 0.00 | 0.00 | 69 | 1016.0 |
| 20260502023037 | 42 | 304 | 2.0 | 4.0 | 0.00 | 0.00 | 0.00 | 69 | 1016.0 |
| 20260502021535 | 42 | 321 | 4.0 | 8.0 | 0.00 | 0.00 | 0.00 | 69 | 1015.9 |
| 20260502020036 | 42 | 332 | 1.0 | 5.0 | 0.00 | 0.00 | 0.00 | 69 | 1015.7 |
| 20260502014534 | 43 | 352 | 2.0 | 7.0 | 0.00 | 0.00 | 0.00 | 69 | 1015.8 |
| 20260502013049 | 43 | 323 | 4.0 | 10.0 | 0.00 | 0.00 | 0.00 | 68 | 1015.6 |
| 20260502011533 | 43 | 274 | 2.0 | 4.0 | 0.00 | 0.00 | 0.00 | 68 | 1015.4 |
| 20260502010037 | 43 | 27 | 2.0 | 5.0 | 0.00 | 0.00 | 0.00 | 68 | 1015.1 |
| 20260502004541 | 43 | 324 | 1.0 | 6.0 | 0.00 | 0.00 | 0.00 | 67 | 1015.3 |
| 20260502003035 | 43 | 308 | 2.0 | 8.0 | 0.00 | 0.00 | 0.00 | 66 | 1015.2 |
| 20260502001532 | 44 | 295 | 4.0 | 9.0 | 0.00 | 0.00 | 0.00 | 67 | 1015.1 |
| 20260502000035 | 44 | 305 | 3.0 | 7.0 | 0.00 | 0.00 | 0.00 | 66 | 1015.1 |
| 20260501234536 | 44 | 293 | 3.0 | 6.0 | 0.00 | 0.00 | 0.00 | 66 | 1014.9 |
| 20260501233036 | 44 | 271 | 3.0 | 5.0 | 0.00 | 0.00 | 0.00 | 66 | 1014.7 |
| 20260501231535 | 45 | 330 | 2.0 | 6.0 | 0.00 | 0.00 | 0.00 | 65 | 1014.7 |
| 20260501230034 | 45 | 293 | 3.0 | 9.0 | 0.00 | 0.00 | 0.00 | 64 | 1014.7 |
| 20260501224541 | 45 | 0 | 2.0 | 12.0 | 0.00 | 0.00 | 0.00 | 63 | 1014.7 |
| 20260501223034 | 46 | 318 | 3.0 | 7.0 | 0.00 | 0.00 | 0.00 | 63 | 1014.8 |